Change the Weather History Date:

Friday, April 4, 2014

  Actual Average Record
Temperature  
Mean Temperature 54 °F -  
Max Temperature 70 °F 63 °F - ()
Min Temperature 38 °F 42 °F - ()
Degree Days  
Heating Degree Days 11    
Growing Degree Days 4 (Base 50)    
Moisture  
Dew Point 42 °F    
Average Humidity 62    
Maximum Humidity 93    
Minimum Humidity 26    
Precipitation  
Precipitation 0.00 in 0.07 in - ()
Sea Level Pressure  
Sea Level Pressure 29.83 in    
Wind  
Wind Speed 6 mph ()    
Max Wind Speed 14 mph    
Max Gust Speed -    
Visibility 6.0 miles    
Events Rain    
T = Trace of Precipitation, MM = Missing Value Source: Averaged Metar Reports

Daily Weather History Graph

Daily Weather History Graph

Search for Another Location

Airport or City:

Trip Planner

Search our weather history database for the weather conditions in past years. The results will help you decide how hot, cold, wet, or windy it might be!

Date:

Astronomy

Apr. 04, 2014 Rise Set
Actual Time 6:43 AM EEST 7:42 PM EEST
Civil Twilight 6:12 AM EEST 8:13 PM EEST
Nautical Twilight 5:34 AM EEST 8:51 PM EEST
Astronomical Twilight 4:55 AM EEST 9:30 PM EEST
Moon 9:30 AM EEST (4/4) No Moon Set
Length of Visible Light 14h 01m
Length of Day
12h 59m
Waxing Crescent, 23% of the Moon is Illuminated
Apr 4
Waxing Crescent
Apr 7
First Quarter
Apr 15
Full
Apr 22
Last Quarter
Apr 29
New

Hourly Weather History & Observations

Time (EEST) Temp. Windchill Dew Point Humidity Pressure Visibility Wind Dir Wind Speed Gust Speed Precip Events Conditions
12:00 AM 49 °F - 37 °F 53% 29.85 in 6 mi South 2.2 mph - -  
12:00 AM 50.0 °F - 37.4 °F 62% 29.83 in - SE 9.2 mph - N/A   Clear
1:00 AM 46 °F - 37 °F 61% 29.84 in 6 mi East 2.2 mph - -  
1:00 AM 46.4 °F 42.9 °F 37.4 °F 71% 29.80 in - ESE 6.9 mph - N/A   Clear
2:00 AM 46 °F - 37 °F 62% 29.83 in 6 mi East 4.5 mph - -  
2:00 AM 42.8 °F 37.5 °F 35.6 °F 76% 29.80 in - East 9.2 mph - N/A   Clear
3:00 AM 43 °F - 36 °F 70% 29.83 in 6 mi East 4.5 mph - -  
3:00 AM 42.8 °F 37.5 °F 37.4 °F 81% 29.80 in - ESE 9.2 mph - N/A   Clear
4:00 AM 42 °F - 36 °F 71% 29.82 in 6 mi East 4.5 mph - -  
4:00 AM 41.0 °F 35.2 °F 35.6 °F 81% 29.80 in - East 9.2 mph - N/A   Clear
5:00 AM 40 °F - 36 °F 80% 29.81 in 6 mi East 4.5 mph - -   Clear
5:00 AM 39.2 °F 33.0 °F 35.6 °F 87% 29.80 in - East 9.2 mph - N/A   Clear
5:30 AM 39.2 °F 33.0 °F 35.6 °F 87% 29.77 in - East 9.2 mph - N/A   Clear
7:00 AM 38 °F - 36 °F 89% 29.81 in 6 mi East 4.5 mph - -   Clear
7:00 AM 39.2 °F 34.2 °F 35.6 °F 87% 29.80 in - East 6.9 mph - N/A   Clear
7:30 AM 39.2 °F 34.2 °F 37.4 °F 93% 29.80 in - East 6.9 mph - N/A   Clear
8:00 AM 40 °F - 38 °F 88% 29.81 in 6 mi East 4.5 mph - -   Clear
8:00 AM 41.0 °F 36.4 °F 39.2 °F 93% 29.77 in - East 6.9 mph - N/A   Clear
8:30 AM 42.8 °F 37.5 °F 39.2 °F 87% 29.77 in - East 9.2 mph - N/A   Clear
9:00 AM 45 °F - 39 °F 72% 29.81 in 6 mi East 4.5 mph - -   Clear
9:00 AM 46.4 °F 42.9 °F 39.2 °F 76% 29.80 in - East 6.9 mph - N/A   Clear
9:30 AM 48.2 °F - 41.0 °F 76% 29.80 in - East 6.9 mph - N/A   Clear
10:00 AM 49 °F - 40 °F 63% 29.81 in 6 mi East 4.5 mph - -   Clear
10:00 AM 50.0 °F - 41.0 °F 71% 29.80 in - East 6.9 mph - N/A   Clear
10:30 AM 53.6 °F - 41.0 °F 62% 29.80 in - ESE 4.6 mph - N/A   Clear
11:00 AM 55 °F - 43 °F 53% 29.81 in 6 mi East 4.5 mph - -   Scattered Clouds
11:00 AM 57.2 °F - 41.0 °F 55% 29.80 in - ESE 4.6 mph - N/A   Clear
11:30 AM 59.0 °F - 41.0 °F 51% 29.80 in - ESE 4.6 mph - N/A   Clear
12:00 PM 60 °F - 43 °F 42% 29.82 in 6 mi East 4.5 mph - -   Partly Cloudy
12:00 PM 60.8 °F - 42.8 °F 52% 29.80 in - East 4.6 mph - N/A   Clear
12:30 PM 62.6 °F - 42.8 °F 48% 29.80 in - ESE 4.6 mph - N/A   Clear
1:00 PM 64 °F - 44 °F 37% 29.81 in 6 mi NE 2.2 mph - -   Mostly Cloudy
1:30 PM 66.2 °F - 41.0 °F 40% 29.80 in - NW 4.6 mph - N/A   Clear
2:00 PM 69 °F - 42 °F 26% 29.81 in 6 mi NNW 2.2 mph - -   Mostly Cloudy
2:00 PM 68.0 °F - 41.0 °F 37% 29.80 in - WNW 6.9 mph - N/A   Clear
2:30 PM 68.0 °F - 41.0 °F 37% 29.80 in - NNW 6.9 mph - N/A   Clear
3:00 PM 69 °F - 44 °F 28% 29.80 in 6 mi NW 4.5 mph - -   Partly Cloudy
3:00 PM 68.0 °F - 42.8 °F 40% 29.80 in - NNW 9.2 mph - N/A   Clear
3:30 PM 68.0 °F - 42.8 °F 40% 29.80 in - NNW 6.9 mph - N/A   Clear
4:00 PM 70 °F - 43 °F 26% 29.80 in 6 mi North 2.2 mph - -   Overcast
4:00 PM 68.0 °F - 42.8 °F 40% 29.80 in - North 9.2 mph - N/A   Clear
4:30 PM 66.2 °F - 42.8 °F 43% 29.83 in 6.2 mi NNW 13.8 mph - N/A   Scattered Clouds
5:00 PM 68 °F - 42 °F 28% 29.82 in 6 mi North 6.7 mph - -   Overcast
5:00 PM 60.8 °F - 48.2 °F 63% 29.83 in - West 13.8 mph - N/A   Clear
5:30 PM 59.0 °F - 50.0 °F 72% 29.86 in 6.2 mi West 13.8 mph - N/A Rain Light Rain
6:00 PM 59 °F - 49 °F 62% 29.86 in 6 mi West 11.2 mph - -   Overcast
6:00 PM 59.0 °F - 50.0 °F 72% 29.86 in 6.2 mi West 4.6 mph - N/A   Scattered Clouds
6:30 PM 59.0 °F - 48.2 °F 67% 29.86 in - Variable 2.3 mph - N/A   Clear
7:00 PM 60 °F - 49 °F 59% 29.87 in 6 mi WNW 4.5 mph - -   Overcast
7:00 PM 59.0 °F - 48.2 °F 67% 29.86 in - Variable 2.3 mph - N/A   Clear
7:30 PM 59.0 °F - 50.0 °F 72% 29.89 in - WSW 4.6 mph - N/A   Clear
8:00 PM 59 °F - 50 °F 63% 29.89 in 6 mi West 4.5 mph - -   Overcast
8:00 PM 59.0 °F - 48.2 °F 67% 29.89 in - West 4.6 mph - N/A   Clear
8:30 PM 57.2 °F - 46.4 °F 67% 29.92 in - NNW 6.9 mph - N/A   Clear
9:00 PM 58 °F - 49 °F 65% 29.92 in 6 mi West 2.2 mph - - Rain Light Rain Showers
9:00 PM 57.2 °F - 46.4 °F 67% 29.92 in - NW 6.9 mph - N/A   Clear
10:00 PM 55 °F - 49 °F 74% 29.95 in 6 mi Calm Calm - -   Overcast
10:00 PM 55.4 °F - 41.0 °F 58% 29.95 in - North 9.2 mph - N/A   Clear
11:00 PM 57 °F - 39 °F 39% 29.97 in 6 mi NNE 6.7 mph - -   Overcast
11:00 PM 55.4 °F - 37.4 °F 51% 29.98 in - North 11.5 mph - N/A   Clear